エレーニン彗星

C/2017 A3 ( Elenin )

English version
Home page
Updated on March 3, 2018

---------------------------------------------------------------------

・ プロフィール

発見日 2017年1月5日
発見光度 17.6等
発見者 L. Elenin (ISON-SSO Observatory at Siding Spring)

・ 写真集

・ 軌道要素

Epoch 2017 Feb. 16.0 TT = JDT 2457800.5
T 2017 Jan. 30.60906 TT                                 MPCW
q   3.8545296            (2000.0)            P               Q
z  +0.0230794      Peri.  304.10816     -0.19845187     -0.03167546
 +/-0.0000000      Node    97.90378     +0.81986808     +0.54230703
e   0.9110397      Incl.   98.50858     -0.53705976     +0.83958308
From 175 observations 2017 Jan. 5-Dec. 1, mean residual 0".5.

・ 光度変化

        m1 = 6.0 + 5 logΔ + 15.0 log r

---------------------------------------------------------------------

軌道要素はM.P.E.C. 2018-B155に掲載されたものです。
光度グラフはComet for Windowsで作成したものです。

---------------------------------------------------------------------

Copyright(C) Seiichi Yoshida (comet@aerith.net). All rights reserved.